owner,sensor,date,latitude,longitude,vertical_datum,sea_water_practical_salinity,qcFlag 
DISL,ioos:station:DISL:PPTA:1,2012-12-01T00:00:00Z,30.2791,-87.5561,1.331,33.22,1111122 
DISL,ioos:station:DISL:PPTA:1,2012-12-01T00:30:00Z,30.2791,-87.5561,1.347,33.23,1111122 
DISL,ioos:station:DISL:PPTA:1,2012-12-01T01:00:00Z,30.2791,-87.5561,1.369,33.22,1111122 
DISL,ioos:station:DISL:PPTA:1,2012-12-01T01:30:00Z,30.2791,-87.5561,1.389,33.23,1111122 
DISL,ioos:station:DISL:PPTA:1,2012-12-01T02:00:00Z,30.2791,-87.5561,1.411,33.24,1111122 
DISL,ioos:station:DISL:PPTA:1,2012-12-01T02:30:00Z,30.2791,-87.5561,1.426,33.27,1111122 
DISL,ioos:station:DISL:PPTA:1,2012-12-01T03:00:00Z,30.2791,-87.5561,1.438,33.31,1111122 
DISL,ioos:station:DISL:PPTA:1,2012-12-01T03:30:00Z,30.2791,-87.5561,1.428,33.32,1111122 
DISL,ioos:station:DISL:PPTA:1,2012-12-01T04:00:00Z,30.2791,-87.5561,1.43,33.32,1111122 
DISL,ioos:station:DISL:PPTA:1,2012-12-01T04:30:00Z,30.2791,-87.5561,1.426,33.34,1111122 
DISL,ioos:station:DISL:PPTA:1,2012-12-01T05:00:00Z,30.2791,-87.5561,1.438,33.34,1111122 
DISL,ioos:station:DISL:PPTA:1,2012-12-01T05:30:00Z,30.2791,-87.5561,1.427,33.33,1111122 
DISL,ioos:station:DISL:PPTA:1,2012-12-01T06:00:00Z,30.2791,-87.5561,1.423,33.32,1111122 
DISL,ioos:station:DISL:PPTA:1,2012-12-01T06:30:00Z,30.2791,-87.5561,1.425,33.34,1111122 
DISL,ioos:station:DISL:PPTA:1,2012-12-01T07:00:00Z,30.2791,-87.5561,1.403,33.34,1111122 
DISL,ioos:station:DISL:PPTA:1,2012-12-01T07:30:00Z,30.2791,-87.5561,1.376,33.31,1111122 
DISL,ioos:station:DISL:PPTA:1,2012-12-01T08:00:00Z,30.2791,-87.5561,1.368,33.3,1111122 
DISL,ioos:station:DISL:PPTA:1,2012-12-01T08:30:00Z,30.2791,-87.5561,1.341,33.16,1111122 
DISL,ioos:station:DISL:PPTA:1,2012-12-01T09:00:00Z,30.2791,-87.5561,1.324,31.06,1111122 
DISL,ioos:station:DISL:PPTA:1,2012-12-01T09:30:00Z,30.2791,-87.5561,1.312,32.77,1111122 
DISL,ioos:station:DISL:PPTA:1,2012-12-01T10:00:00Z,30.2791,-87.5561,1.302,32.71,1111122 
DISL,ioos:station:DISL:PPTA:1,2012-12-01T10:30:00Z,30.2791,-87.5561,1.29,32.61,1111122 
DISL,ioos:station:DISL:PPTA:1,2012-12-01T11:00:00Z,30.2791,-87.5561,1.275,32.58,1111122 
DISL,ioos:station:DISL:PPTA:1,2012-12-01T11:30:00Z,30.2791,-87.5561,1.265,32.53,1111122 
DISL,ioos:station:DISL:PPTA:1,2012-12-01T12:00:00Z,30.2791,-87.5561,1.254,32.55,1111122 
DISL,ioos:station:DISL:PPTA:1,2012-12-01T12:30:00Z,30.2791,-87.5561,1.242,32.34,1111122 
DISL,ioos:station:DISL:PPTA:1,2012-12-01T13:00:00Z,30.2791,-87.5561,1.239,31.55,1111122 
DISL,ioos:station:DISL:PPTA:1,2012-12-01T13:30:00Z,30.2791,-87.5561,1.228,31.18,1111122 
DISL,ioos:station:DISL:PPTA:1,2012-12-01T14:00:00Z,30.2791,-87.5561,1.22,30.79,1111122 
DISL,ioos:station:DISL:PPTA:1,2012-12-01T14:30:00Z,30.2791,-87.5561,1.207,30.52,1111122 
DISL,ioos:station:DISL:PPTA:1,2012-12-01T15:00:00Z,30.2791,-87.5561,1.199,30.31,1111122 
DISL,ioos:station:DISL:PPTA:1,2012-12-01T15:30:00Z,30.2791,-87.5561,1.199,30.37,1111122 
DISL,ioos:station:DISL:PPTA:1,2012-12-01T16:00:00Z,30.2791,-87.5561,1.196,30.38,1111122 
DISL,ioos:station:DISL:PPTA:1,2012-12-01T16:30:00Z,30.2791,-87.5561,1.2,29.94,1111122 
DISL,ioos:station:DISL:PPTA:1,2012-12-01T17:00:00Z,30.2791,-87.5561,1.201,29.37,1111122 
DISL,ioos:station:DISL:PPTA:1,2012-12-01T17:30:00Z,30.2791,-87.5561,1.195,28.74,1111122 
DISL,ioos:station:DISL:PPTA:1,2012-12-01T18:00:00Z,30.2791,-87.5561,1.203,28.51,1111122 
DISL,ioos:station:DISL:PPTA:1,2012-12-01T18:30:00Z,30.2791,-87.5561,1.205,28.51,1111122 
DISL,ioos:station:DISL:PPTA:1,2012-12-01T19:00:00Z,30.2791,-87.5561,1.224,29.62,1111122 
DISL,ioos:station:DISL:PPTA:1,2012-12-01T19:30:00Z,30.2791,-87.5561,1.222,28.77,1111122 
DISL,ioos:station:DISL:PPTA:1,2012-12-01T20:00:00Z,30.2791,-87.5561,1.219,29.88,1111122 
DISL,ioos:station:DISL:PPTA:1,2012-12-01T20:30:00Z,30.2791,-87.5561,1.232,29.25,1111122 
DISL,ioos:station:DISL:PPTA:1,2012-12-01T21:00:00Z,30.2791,-87.5561,1.231,29.57,1111122 
DISL,ioos:station:DISL:PPTA:1,2012-12-01T21:30:00Z,30.2791,-87.5561,1.234,31.17,1111122 
DISL,ioos:station:DISL:PPTA:1,2012-12-01T22:00:00Z,30.2791,-87.5561,1.246,32.08,1111122 
DISL,ioos:station:DISL:PPTA:1,2012-12-01T22:30:00Z,30.2791,-87.5561,1.252,32.27,1111122 
DISL,ioos:station:DISL:PPTA:1,2012-12-01T23:00:00Z,30.2791,-87.5561,1.276,32.51,1111122 
DISL,ioos:station:DISL:PPTA:1,2012-12-01T23:30:00Z,30.2791,-87.5561,1.293,32.73,1111122 
DISL,ioos:station:DISL:PPTA:1,2012-12-02T00:00:00Z,30.2791,-87.5561,1.309,32.6,1111122 
DISL,ioos:station:DISL:PPTA:1,2012-12-02T00:30:00Z,30.2791,-87.5561,1.335,32.86,1111122 
DISL,ioos:station:DISL:PPTA:1,2012-12-02T01:00:00Z,30.2791,-87.5561,1.353,32.85,1111122 
DISL,ioos:station:DISL:PPTA:1,2012-12-02T01:30:00Z,30.2791,-87.5561,1.373,32.84,1111122 
DISL,ioos:station:DISL:PPTA:1,2012-12-02T02:00:00Z,30.2791,-87.5561,1.385,32.92,1111122 
DISL,ioos:station:DISL:PPTA:1,2012-12-02T02:30:00Z,30.2791,-87.5561,1.397,32.88,1111122 
DISL,ioos:station:DISL:PPTA:1,2012-12-02T03:00:00Z,30.2791,-87.5561,1.413,32.94,1111122 
DISL,ioos:station:DISL:PPTA:1,2012-12-02T03:30:00Z,30.2791,-87.5561,1.409,32.96,1111122 
DISL,ioos:station:DISL:PPTA:1,2012-12-02T04:00:00Z,30.2791,-87.5561,1.416,32.95,1111122 
DISL,ioos:station:DISL:PPTA:1,2012-12-02T04:30:00Z,30.2791,-87.5561,1.424,33.0,1111122 
DISL,ioos:station:DISL:PPTA:1,2012-12-02T05:00:00Z,30.2791,-87.5561,1.426,33.0,1111122 
DISL,ioos:station:DISL:PPTA:1,2012-12-02T05:30:00Z,30.2791,-87.5561,1.423,33.02,1111122 
DISL,ioos:station:DISL:PPTA:1,2012-12-02T06:00:00Z,30.2791,-87.5561,1.431,33.02,1111122 
DISL,ioos:station:DISL:PPTA:1,2012-12-02T06:30:00Z,30.2791,-87.5561,1.425,33.03,1111122 
DISL,ioos:station:DISL:PPTA:1,2012-12-02T07:00:00Z,30.2791,-87.5561,1.401,33.05,1111122 
DISL,ioos:station:DISL:PPTA:1,2012-12-02T07:30:00Z,30.2791,-87.5561,1.379,33.01,1111122 
DISL,ioos:station:DISL:PPTA:1,2012-12-02T08:00:00Z,30.2791,-87.5561,1.364,32.96,1111122 
DISL,ioos:station:DISL:PPTA:1,2012-12-02T08:30:00Z,30.2791,-87.5561,1.348,29.91,1111122 
DISL,ioos:station:DISL:PPTA:1,2012-12-02T09:00:00Z,30.2791,-87.5561,1.325,31.16,1111122 
DISL,ioos:station:DISL:PPTA:1,2012-12-02T09:30:00Z,30.2791,-87.5561,1.307,32.56,1111122 
DISL,ioos:station:DISL:PPTA:1,2012-12-02T10:00:00Z,30.2791,-87.5561,1.293,32.5,1111122 
DISL,ioos:station:DISL:PPTA:1,2012-12-02T10:30:00Z,30.2791,-87.5561,1.278,32.49,1111122 
DISL,ioos:station:DISL:PPTA:1,2012-12-02T11:00:00Z,30.2791,-87.5561,1.263,32.35,1111122 
DISL,ioos:station:DISL:PPTA:1,2012-12-02T11:30:00Z,30.2791,-87.5561,1.248,32.2,1111122 
DISL,ioos:station:DISL:PPTA:1,2012-12-02T12:00:00Z,30.2791,-87.5561,1.226,31.83,1111122 
DISL,ioos:station:DISL:PPTA:1,2012-12-02T12:30:00Z,30.2791,-87.5561,1.214,31.35,1111122 
DISL,ioos:station:DISL:PPTA:1,2012-12-02T13:00:00Z,30.2791,-87.5561,1.208,30.47,1111122 
DISL,ioos:station:DISL:PPTA:1,2012-12-02T13:30:00Z,30.2791,-87.5561,1.195,30.04,1111122 
DISL,ioos:station:DISL:PPTA:1,2012-12-02T14:00:00Z,30.2791,-87.5561,1.181,29.57,1111122 
DISL,ioos:station:DISL:PPTA:1,2012-12-02T14:30:00Z,30.2791,-87.5561,1.175,29.47,1111122 
DISL,ioos:station:DISL:PPTA:1,2012-12-02T15:00:00Z,30.2791,-87.5561,1.164,29.5,1111122 
DISL,ioos:station:DISL:PPTA:1,2012-12-02T15:30:00Z,30.2791,-87.5561,1.153,29.43,1111122 
DISL,ioos:station:DISL:PPTA:1,2012-12-02T16:00:00Z,30.2791,-87.5561,1.153,29.3,1111122 
DISL,ioos:station:DISL:PPTA:1,2012-12-02T16:30:00Z,30.2791,-87.5561,1.154,28.94,1111122 
DISL,ioos:station:DISL:PPTA:1,2012-12-02T17:00:00Z,30.2791,-87.5561,1.146,28.98,1111122 
DISL,ioos:station:DISL:PPTA:1,2012-12-02T17:30:00Z,30.2791,-87.5561,1.14,28.99,1111122 
DISL,ioos:station:DISL:PPTA:1,2012-12-02T18:00:00Z,30.2791,-87.5561,1.168,28.0,1111122 
DISL,ioos:station:DISL:PPTA:1,2012-12-02T18:30:00Z,30.2791,-87.5561,1.17,27.45,1111122 
DISL,ioos:station:DISL:PPTA:1,2012-12-02T19:00:00Z,30.2791,-87.5561,1.17,29.2,1111122 
DISL,ioos:station:DISL:PPTA:1,2012-12-02T19:30:00Z,30.2791,-87.5561,1.182,27.89,1111122 
DISL,ioos:station:DISL:PPTA:1,2012-12-02T20:00:00Z,30.2791,-87.5561,1.193,27.79,1111122 
DISL,ioos:station:DISL:PPTA:1,2012-12-02T20:30:00Z,30.2791,-87.5561,1.188,28.75,1111122 
DISL,ioos:station:DISL:PPTA:1,2012-12-02T21:00:00Z,30.2791,-87.5561,1.21,28.88,1111122 
DISL,ioos:station:DISL:PPTA:1,2012-12-02T21:30:00Z,30.2791,-87.5561,1.222,29.48,1111122 
DISL,ioos:station:DISL:PPTA:1,2012-12-02T22:00:00Z,30.2791,-87.5561,1.219,31.15,1111122 
DISL,ioos:station:DISL:PPTA:1,2012-12-02T22:30:00Z,30.2791,-87.5561,1.242,31.54,1111122 
DISL,ioos:station:DISL:PPTA:1,2012-12-02T23:00:00Z,30.2791,-87.5561,1.256,32.32,1111122 
DISL,ioos:station:DISL:PPTA:1,2012-12-02T23:30:00Z,30.2791,-87.5561,1.267,32.04,1111122 
DISL,ioos:station:DISL:PPTA:1,2012-12-03T00:00:00Z,30.2791,-87.5561,1.287,32.55,1111122 
DISL,ioos:station:DISL:PPTA:1,2012-12-03T00:30:00Z,30.2791,-87.5561,1.299,32.63,1111122 
DISL,ioos:station:DISL:PPTA:1,2012-12-03T01:00:00Z,30.2791,-87.5561,1.321,32.5,1111122 
DISL,ioos:station:DISL:PPTA:1,2012-12-03T01:30:00Z,30.2791,-87.5561,1.334,32.74,1111122 
DISL,ioos:station:DISL:PPTA:1,2012-12-03T02:00:00Z,30.2791,-87.5561,1.36,32.66,1111122 
DISL,ioos:station:DISL:PPTA:1,2012-12-03T02:30:00Z,30.2791,-87.5561,1.378,32.79,1111122 
DISL,ioos:station:DISL:PPTA:1,2012-12-03T03:00:00Z,30.2791,-87.5561,1.399,32.79,1111122 
DISL,ioos:station:DISL:PPTA:1,2012-12-03T03:30:00Z,30.2791,-87.5561,1.405,32.81,1111122 
DISL,ioos:station:DISL:PPTA:1,2012-12-03T04:00:00Z,30.2791,-87.5561,1.402,32.83,1111122 
DISL,ioos:station:DISL:PPTA:1,2012-12-03T04:30:00Z,30.2791,-87.5561,1.405,32.81,1111122 
DISL,ioos:station:DISL:PPTA:1,2012-12-03T05:00:00Z,30.2791,-87.5561,1.402,32.86,1111122 
DISL,ioos:station:DISL:PPTA:1,2012-12-03T05:30:00Z,30.2791,-87.5561,1.407,32.84,1111122 
DISL,ioos:station:DISL:PPTA:1,2012-12-03T06:00:00Z,30.2791,-87.5561,1.408,32.9,1111122 
DISL,ioos:station:DISL:PPTA:1,2012-12-03T06:30:00Z,30.2791,-87.5561,1.406,32.89,1111122 
DISL,ioos:station:DISL:PPTA:1,2012-12-03T07:00:00Z,30.2791,-87.5561,1.408,32.89,1111122 
DISL,ioos:station:DISL:PPTA:1,2012-12-03T07:30:00Z,30.2791,-87.5561,1.394,32.92,1111122 
DISL,ioos:station:DISL:PPTA:1,2012-12-03T08:00:00Z,30.2791,-87.5561,1.387,32.92,1111122 
DISL,ioos:station:DISL:PPTA:1,2012-12-03T08:30:00Z,30.2791,-87.5561,1.36,32.86,1111122 
DISL,ioos:station:DISL:PPTA:1,2012-12-03T09:00:00Z,30.2791,-87.5561,1.341,32.8,1111122 
DISL,ioos:station:DISL:PPTA:1,2012-12-03T09:30:00Z,30.2791,-87.5561,1.326,30.4,1111122 
DISL,ioos:station:DISL:PPTA:1,2012-12-03T10:00:00Z,30.2791,-87.5561,1.299,31.58,1111122 
DISL,ioos:station:DISL:PPTA:1,2012-12-03T10:30:00Z,30.2791,-87.5561,1.286,31.56,1111122 
DISL,ioos:station:DISL:PPTA:1,2012-12-03T11:00:00Z,30.2791,-87.5561,1.274,32.21,1111122 
DISL,ioos:station:DISL:PPTA:1,2012-12-03T11:30:00Z,30.2791,-87.5561,1.26,32.21,1111122 
DISL,ioos:station:DISL:PPTA:1,2012-12-03T12:00:00Z,30.2791,-87.5561,1.246,31.94,1111122 
DISL,ioos:station:DISL:PPTA:1,2012-12-03T12:30:00Z,30.2791,-87.5561,1.239,31.43,1111122 
DISL,ioos:station:DISL:PPTA:1,2012-12-03T13:00:00Z,30.2791,-87.5561,1.224,30.67,1111122 
DISL,ioos:station:DISL:PPTA:1,2012-12-03T13:30:00Z,30.2791,-87.5561,1.213,30.22,1111122 
DISL,ioos:station:DISL:PPTA:1,2012-12-03T14:00:00Z,30.2791,-87.5561,1.207,29.79,1111122 
DISL,ioos:station:DISL:PPTA:1,2012-12-03T14:30:00Z,30.2791,-87.5561,1.203,29.54,1111122 
DISL,ioos:station:DISL:PPTA:1,2012-12-03T15:00:00Z,30.2791,-87.5561,1.191,29.67,1111122 
DISL,ioos:station:DISL:PPTA:1,2012-12-03T15:30:00Z,30.2791,-87.5561,1.187,29.64,1111122 
DISL,ioos:station:DISL:PPTA:1,2012-12-03T16:00:00Z,30.2791,-87.5561,1.178,29.69,1111122 
DISL,ioos:station:DISL:PPTA:1,2012-12-03T16:30:00Z,30.2791,-87.5561,1.177,29.62,1111122 
DISL,ioos:station:DISL:PPTA:1,2012-12-03T17:00:00Z,30.2791,-87.5561,1.177,29.18,1111122 
DISL,ioos:station:DISL:PPTA:1,2012-12-03T17:30:00Z,30.2791,-87.5561,1.181,29.15,1111122 
DISL,ioos:station:DISL:PPTA:1,2012-12-03T18:00:00Z,30.2791,-87.5561,1.181,29.12,1111122 
DISL,ioos:station:DISL:PPTA:1,2012-12-03T18:30:00Z,30.2791,-87.5561,1.192,27.68,1111122 
DISL,ioos:station:DISL:PPTA:1,2012-12-03T19:00:00Z,30.2791,-87.5561,1.192,28.81,1111122 
DISL,ioos:station:DISL:PPTA:1,2012-12-03T19:30:00Z,30.2791,-87.5561,1.197,28.38,1111122 
DISL,ioos:station:DISL:PPTA:1,2012-12-03T20:00:00Z,30.2791,-87.5561,1.2,28.28,1111122 
DISL,ioos:station:DISL:PPTA:1,2012-12-03T20:30:00Z,30.2791,-87.5561,1.215,29.07,1111122 
DISL,ioos:station:DISL:PPTA:1,2012-12-03T21:00:00Z,30.2791,-87.5561,1.22,28.29,1111122 
DISL,ioos:station:DISL:PPTA:1,2012-12-03T21:30:00Z,30.2791,-87.5561,1.222,30.0,1111122 
DISL,ioos:station:DISL:PPTA:1,2012-12-03T22:00:00Z,30.2791,-87.5561,1.238,31.55,1111122 
DISL,ioos:station:DISL:PPTA:1,2012-12-03T22:30:00Z,30.2791,-87.5561,1.243,32.01,1111122 
DISL,ioos:station:DISL:PPTA:1,2012-12-03T23:00:00Z,30.2791,-87.5561,1.257,32.31,1111122 
DISL,ioos:station:DISL:PPTA:1,2012-12-03T23:30:00Z,30.2791,-87.5561,1.262,32.2,1111122 
DISL,ioos:station:DISL:PPTA:1,2012-12-04T00:00:00Z,30.2791,-87.5561,1.284,32.27,1111122 
DISL,ioos:station:DISL:PPTA:1,2012-12-04T00:30:00Z,30.2791,-87.5561,1.303,32.64,1111122 
DISL,ioos:station:DISL:PPTA:1,2012-12-04T01:00:00Z,30.2791,-87.5561,1.334,32.6,1111122 
DISL,ioos:station:DISL:PPTA:1,2012-12-04T01:30:00Z,30.2791,-87.5561,1.349,32.71,1111122 
DISL,ioos:station:DISL:PPTA:1,2012-12-04T02:00:00Z,30.2791,-87.5561,1.36,32.71,1111122 
DISL,ioos:station:DISL:PPTA:1,2012-12-04T02:30:00Z,30.2791,-87.5561,1.389,32.72,1111122 
DISL,ioos:station:DISL:PPTA:1,2012-12-04T03:00:00Z,30.2791,-87.5561,1.39,32.75,1111122 
DISL,ioos:station:DISL:PPTA:1,2012-12-04T03:30:00Z,30.2791,-87.5561,1.418,32.74,1111122 
DISL,ioos:station:DISL:PPTA:1,2012-12-04T04:00:00Z,30.2791,-87.5561,1.415,32.75,1111122 
DISL,ioos:station:DISL:PPTA:1,2012-12-04T04:30:00Z,30.2791,-87.5561,1.418,32.73,1111122 
DISL,ioos:station:DISL:PPTA:1,2012-12-04T05:00:00Z,30.2791,-87.5561,1.438,32.75,1111122 
DISL,ioos:station:DISL:PPTA:1,2012-12-04T05:30:00Z,30.2791,-87.5561,1.43,32.76,1111122 
DISL,ioos:station:DISL:PPTA:1,2012-12-04T06:00:00Z,30.2791,-87.5561,1.437,32.74,1111122 
DISL,ioos:station:DISL:PPTA:1,2012-12-04T06:30:00Z,30.2791,-87.5561,1.448,32.76,1111122 
DISL,ioos:station:DISL:PPTA:1,2012-12-04T07:00:00Z,30.2791,-87.5561,1.449,32.76,1111122 
DISL,ioos:station:DISL:PPTA:1,2012-12-04T07:30:00Z,30.2791,-87.5561,1.447,32.79,1111122 
DISL,ioos:station:DISL:PPTA:1,2012-12-04T08:00:00Z,30.2791,-87.5561,1.436,32.78,1111122 
DISL,ioos:station:DISL:PPTA:1,2012-12-04T08:30:00Z,30.2791,-87.5561,1.434,32.77,1111122 
DISL,ioos:station:DISL:PPTA:1,2012-12-04T09:00:00Z,30.2791,-87.5561,1.403,32.72,1111122 
DISL,ioos:station:DISL:PPTA:1,2012-12-04T09:30:00Z,30.2791,-87.5561,1.397,32.76,1111122 
DISL,ioos:station:DISL:PPTA:1,2012-12-04T10:00:00Z,30.2791,-87.5561,1.388,32.73,1111122 
DISL,ioos:station:DISL:PPTA:1,2012-12-04T10:30:00Z,30.2791,-87.5561,1.372,31.03,1111122 
DISL,ioos:station:DISL:PPTA:1,2012-12-04T11:00:00Z,30.2791,-87.5561,1.36,31.88,1111122 
DISL,ioos:station:DISL:PPTA:1,2012-12-04T11:30:00Z,30.2791,-87.5561,1.354,32.09,1111122 
DISL,ioos:station:DISL:PPTA:1,2012-12-04T12:00:00Z,30.2791,-87.5561,1.338,32.2,1111122 
DISL,ioos:station:DISL:PPTA:1,2012-12-04T12:30:00Z,30.2791,-87.5561,1.33,32.27,1111122 
DISL,ioos:station:DISL:PPTA:1,2012-12-04T13:00:00Z,30.2791,-87.5561,1.314,32.19,1111122 
DISL,ioos:station:DISL:PPTA:1,2012-12-04T13:30:00Z,30.2791,-87.5561,1.312,30.83,1111122 
DISL,ioos:station:DISL:PPTA:1,2012-12-04T14:00:00Z,30.2791,-87.5561,1.297,30.52,1111122 
DISL,ioos:station:DISL:PPTA:1,2012-12-04T14:30:00Z,30.2791,-87.5561,1.292,30.23,1111122 
DISL,ioos:station:DISL:PPTA:1,2012-12-04T15:00:00Z,30.2791,-87.5561,1.291,29.93,1111122 
DISL,ioos:station:DISL:PPTA:1,2012-12-04T15:30:00Z,30.2791,-87.5561,1.27,30.06,1111122 
DISL,ioos:station:DISL:PPTA:1,2012-12-04T16:00:00Z,30.2791,-87.5561,1.261,29.78,1111122 
DISL,ioos:station:DISL:PPTA:1,2012-12-04T16:30:00Z,30.2791,-87.5561,1.259,29.96,1111122 
DISL,ioos:station:DISL:PPTA:1,2012-12-04T17:00:00Z,30.2791,-87.5561,1.245,30.84,1111122 
DISL,ioos:station:DISL:PPTA:1,2012-12-04T17:30:00Z,30.2791,-87.5561,1.254,29.54,1111122 
DISL,ioos:station:DISL:PPTA:1,2012-12-04T18:00:00Z,30.2791,-87.5561,1.247,28.99,1111122 
DISL,ioos:station:DISL:PPTA:1,2012-12-04T18:30:00Z,30.2791,-87.5561,1.24,28.22,1111122 
DISL,ioos:station:DISL:PPTA:1,2012-12-04T19:00:00Z,30.2791,-87.5561,1.245,27.86,1111122 
DISL,ioos:station:DISL:PPTA:1,2012-12-04T19:30:00Z,30.2791,-87.5561,1.239,29.73,1111122 
DISL,ioos:station:DISL:PPTA:1,2012-12-04T20:00:00Z,30.2791,-87.5561,1.258,29.43,1111122 
DISL,ioos:station:DISL:PPTA:1,2012-12-04T20:30:00Z,30.2791,-87.5561,1.258,29.53,1111122 
DISL,ioos:station:DISL:PPTA:1,2012-12-04T21:00:00Z,30.2791,-87.5561,1.262,28.98,1111122 
DISL,ioos:station:DISL:PPTA:1,2012-12-04T21:30:00Z,30.2791,-87.5561,1.268,31.31,1111122 
DISL,ioos:station:DISL:PPTA:1,2012-12-04T22:00:00Z,30.2791,-87.5561,1.277,29.41,1111122 
DISL,ioos:station:DISL:PPTA:1,2012-12-04T22:30:00Z,30.2791,-87.5561,1.265,30.81,1111122 
DISL,ioos:station:DISL:PPTA:1,2012-12-04T23:00:00Z,30.2791,-87.5561,1.28,31.75,1111122 
DISL,ioos:station:DISL:PPTA:1,2012-12-04T23:30:00Z,30.2791,-87.5561,1.293,31.88,1111122 
DISL,ioos:station:DISL:PPTA:1,2012-12-05T00:00:00Z,30.2791,-87.5561,1.3,32.25,1111122 
DISL,ioos:station:DISL:PPTA:1,2012-12-05T00:30:00Z,30.2791,-87.5561,1.309,32.35,1111122 
DISL,ioos:station:DISL:PPTA:1,2012-12-05T01:00:00Z,30.2791,-87.5561,1.328,32.1,1111122 
DISL,ioos:station:DISL:PPTA:1,2012-12-05T01:30:00Z,30.2791,-87.5561,1.333,32.43,1111122 
DISL,ioos:station:DISL:PPTA:1,2012-12-05T02:00:00Z,30.2791,-87.5561,1.355,32.37,1111122 
DISL,ioos:station:DISL:PPTA:1,2012-12-05T02:30:00Z,30.2791,-87.5561,1.356,32.43,1111122 
DISL,ioos:station:DISL:PPTA:1,2012-12-05T03:00:00Z,30.2791,-87.5561,1.361,32.39,1111122 
DISL,ioos:station:DISL:PPTA:1,2012-12-05T03:30:00Z,30.2791,-87.5561,1.374,32.4,1111122 
DISL,ioos:station:DISL:PPTA:1,2012-12-05T04:00:00Z,30.2791,-87.5561,1.391,32.41,1111122 
DISL,ioos:station:DISL:PPTA:1,2012-12-05T04:30:00Z,30.2791,-87.5561,1.387,32.44,1111122 
DISL,ioos:station:DISL:PPTA:1,2012-12-05T05:00:00Z,30.2791,-87.5561,1.412,32.4,1111122 
DISL,ioos:station:DISL:PPTA:1,2012-12-05T05:30:00Z,30.2791,-87.5561,1.398,32.49,1111122 
DISL,ioos:station:DISL:PPTA:1,2012-12-05T06:00:00Z,30.2791,-87.5561,1.381,32.52,1111122 
DISL,ioos:station:DISL:PPTA:1,2012-12-05T06:30:00Z,30.2791,-87.5561,1.402,32.47,1111122 
DISL,ioos:station:DISL:PPTA:1,2012-12-05T07:00:00Z,30.2791,-87.5561,1.394,32.59,1111122 
DISL,ioos:station:DISL:PPTA:1,2012-12-05T07:30:00Z,30.2791,-87.5561,1.381,32.56,1111122 
DISL,ioos:station:DISL:PPTA:1,2012-12-05T08:00:00Z,30.2791,-87.5561,1.4,32.62,1111122 
DISL,ioos:station:DISL:PPTA:1,2012-12-05T08:30:00Z,30.2791,-87.5561,1.39,32.59,1111122 
DISL,ioos:station:DISL:PPTA:1,2012-12-05T09:00:00Z,30.2791,-87.5561,1.382,32.4,1111122 
DISL,ioos:station:DISL:PPTA:1,2012-12-05T09:30:00Z,30.2791,-87.5561,1.359,29.38,1111122 
DISL,ioos:station:DISL:PPTA:1,2012-12-05T10:00:00Z,30.2791,-87.5561,1.333,28.95,1111122 
DISL,ioos:station:DISL:PPTA:1,2012-12-05T10:30:00Z,30.2791,-87.5561,1.329,31.78,1111122 
DISL,ioos:station:DISL:PPTA:1,2012-12-05T11:00:00Z,30.2791,-87.5561,1.32,31.83,1111122 
DISL,ioos:station:DISL:PPTA:1,2012-12-05T11:30:00Z,30.2791,-87.5561,1.32,31.42,1111122 
DISL,ioos:station:DISL:PPTA:1,2012-12-05T12:00:00Z,30.2791,-87.5561,1.292,30.28,1111122 
DISL,ioos:station:DISL:PPTA:1,2012-12-05T12:30:00Z,30.2791,-87.5561,1.29,29.93,1111122 
DISL,ioos:station:DISL:PPTA:1,2012-12-05T13:00:00Z,30.2791,-87.5561,1.278,29.49,1111122 
DISL,ioos:station:DISL:PPTA:1,2012-12-05T13:30:00Z,30.2791,-87.5561,1.254,29.39,1111122 
DISL,ioos:station:DISL:PPTA:1,2012-12-05T14:00:00Z,30.2791,-87.5561,1.236,29.22,1111122 
DISL,ioos:station:DISL:PPTA:1,2012-12-05T14:30:00Z,30.2791,-87.5561,1.245,29.57,1111122 
DISL,ioos:station:DISL:PPTA:1,2012-12-05T15:00:00Z,30.2791,-87.5561,1.232,29.14,1111122 
DISL,ioos:station:DISL:PPTA:1,2012-12-05T15:30:00Z,30.2791,-87.5561,1.234,28.98,1111122 
DISL,ioos:station:DISL:PPTA:1,2012-12-05T16:00:00Z,30.2791,-87.5561,1.239,28.55,1111122 
DISL,ioos:station:DISL:PPTA:1,2012-12-05T16:30:00Z,30.2791,-87.5561,1.228,28.73,1111122 
DISL,ioos:station:DISL:PPTA:1,2012-12-05T17:00:00Z,30.2791,-87.5561,1.22,28.12,1111122 
DISL,ioos:station:DISL:PPTA:1,2012-12-05T17:30:00Z,30.2791,-87.5561,1.204,28.55,1111122 
DISL,ioos:station:DISL:PPTA:1,2012-12-05T18:00:00Z,30.2791,-87.5561,1.22,27.26,1111122 
DISL,ioos:station:DISL:PPTA:1,2012-12-05T18:30:00Z,30.2791,-87.5561,1.225,27.33,1111122 
DISL,ioos:station:DISL:PPTA:1,2012-12-05T19:00:00Z,30.2791,-87.5561,1.238,29.04,1111122 
DISL,ioos:station:DISL:PPTA:1,2012-12-05T19:30:00Z,30.2791,-87.5561,1.22,26.97,1111122 
DISL,ioos:station:DISL:PPTA:1,2012-12-05T20:00:00Z,30.2791,-87.5561,1.227,28.44,1111122 
DISL,ioos:station:DISL:PPTA:1,2012-12-05T20:30:00Z,30.2791,-87.5561,1.234,27.96,1111122 
DISL,ioos:station:DISL:PPTA:1,2012-12-05T21:00:00Z,30.2791,-87.5561,1.255,30.15,1111122 
DISL,ioos:station:DISL:PPTA:1,2012-12-05T21:30:00Z,30.2791,-87.5561,1.246,28.02,1111122 
DISL,ioos:station:DISL:PPTA:1,2012-12-05T22:00:00Z,30.2791,-87.5561,1.262,30.01,1111122 
DISL,ioos:station:DISL:PPTA:1,2012-12-05T22:30:00Z,30.2791,-87.5561,1.277,31.5,1111122 
DISL,ioos:station:DISL:PPTA:1,2012-12-05T23:00:00Z,30.2791,-87.5561,1.279,31.76,1111122 
DISL,ioos:station:DISL:PPTA:1,2012-12-05T23:30:00Z,30.2791,-87.5561,1.287,31.81,1111122 
DISL,ioos:station:DISL:PPTA:1,2012-12-06T00:00:00Z,30.2791,-87.5561,1.295,32.2,1111122 
DISL,ioos:station:DISL:PPTA:1,2012-12-06T00:30:00Z,30.2791,-87.5561,1.29,32.41,1111122 
DISL,ioos:station:DISL:PPTA:1,2012-12-06T01:00:00Z,30.2791,-87.5561,1.287,32.27,1111122 
DISL,ioos:station:DISL:PPTA:1,2012-12-06T01:30:00Z,30.2791,-87.5561,1.309,32.39,1111122 
DISL,ioos:station:DISL:PPTA:1,2012-12-06T02:00:00Z,30.2791,-87.5561,1.336,32.23,1111122 
DISL,ioos:station:DISL:PPTA:1,2012-12-06T02:30:00Z,30.2791,-87.5561,1.341,32.45,1111122 
DISL,ioos:station:DISL:PPTA:1,2012-12-06T03:00:00Z,30.2791,-87.5561,1.343,32.32,1111122 
DISL,ioos:station:DISL:PPTA:1,2012-12-06T03:30:00Z,30.2791,-87.5561,1.353,32.45,1111122 
DISL,ioos:station:DISL:PPTA:1,2012-12-06T04:00:00Z,30.2791,-87.5561,1.347,32.45,1111122 
DISL,ioos:station:DISL:PPTA:1,2012-12-06T04:30:00Z,30.2791,-87.5561,1.359,32.4,1111122 
DISL,ioos:station:DISL:PPTA:1,2012-12-06T05:00:00Z,30.2791,-87.5561,1.357,32.32,1111122 
DISL,ioos:station:DISL:PPTA:1,2012-12-06T05:30:00Z,30.2791,-87.5561,1.373,32.38,1111122 
DISL,ioos:station:DISL:PPTA:1,2012-12-06T06:00:00Z,30.2791,-87.5561,1.358,32.4,1111122 
DISL,ioos:station:DISL:PPTA:1,2012-12-06T06:30:00Z,30.2791,-87.5561,1.362,32.38,1111122 
DISL,ioos:station:DISL:PPTA:1,2012-12-06T07:00:00Z,30.2791,-87.5561,1.37,32.27,1111122 
DISL,ioos:station:DISL:PPTA:1,2012-12-06T07:30:00Z,30.2791,-87.5561,1.353,32.28,1111122 
DISL,ioos:station:DISL:PPTA:1,2012-12-06T08:00:00Z,30.2791,-87.5561,1.358,29.38,1111122 
DISL,ioos:station:DISL:PPTA:1,2012-12-06T08:30:00Z,30.2791,-87.5561,1.362,29.56,1111122 
DISL,ioos:station:DISL:PPTA:1,2012-12-06T09:00:00Z,30.2791,-87.5561,1.345,30.7,1111122 
DISL,ioos:station:DISL:PPTA:1,2012-12-06T09:30:00Z,30.2791,-87.5561,1.341,30.76,1111122 
DISL,ioos:station:DISL:PPTA:1,2012-12-06T10:00:00Z,30.2791,-87.5561,1.35,30.81,1111122 
DISL,ioos:station:DISL:PPTA:1,2012-12-06T10:30:00Z,30.2791,-87.5561,1.336,31.47,1111122 
DISL,ioos:station:DISL:PPTA:1,2012-12-06T11:00:00Z,30.2791,-87.5561,1.327,30.64,1111122 
DISL,ioos:station:DISL:PPTA:1,2012-12-06T11:30:00Z,30.2791,-87.5561,1.311,29.39,1111122 
DISL,ioos:station:DISL:PPTA:1,2012-12-06T12:00:00Z,30.2791,-87.5561,1.299,29.24,1111122 
DISL,ioos:station:DISL:PPTA:1,2012-12-06T12:30:00Z,30.2791,-87.5561,1.289,28.95,1111122 
DISL,ioos:station:DISL:PPTA:1,2012-12-06T13:00:00Z,30.2791,-87.5561,1.302,28.77,1111122 
DISL,ioos:station:DISL:PPTA:1,2012-12-06T13:30:00Z,30.2791,-87.5561,1.273,28.45,1111122 
DISL,ioos:station:DISL:PPTA:1,2012-12-06T14:00:00Z,30.2791,-87.5561,1.264,27.92,1111122 